Stündliche Wetter Abbottabad

Heute, 5 März, Freitag

Zeit Temperatur Niederschläge Wind Luftdruck Luftfeuchtigkeit
00:00 +13°C° 0 mm 2 m/S 655 mmHg 44%
01:00 +13°C° 0 mm 2 m/S 655 mmHg 44%
02:00 +12°C° 0 mm 2 m/S 655 mmHg 45%
03:00 +12°C° 0 mm 2 m/S 655 mmHg 44%
04:00 +12°C° 0 mm 2 m/S 654 mmHg 43%
05:00 +12°C° 0 mm 2 m/S 654 mmHg 45%
06:00 +13°C° 0 mm 2 m/S 655 mmHg 44%
07:00 +14°C° 0 mm 2 m/S 655 mmHg 43%
08:00 +15°C° 0 mm 2 m/S 656 mmHg 43%
09:00 +16°C° 0 mm 2 m/S 657 mmHg 38%
10:00 +18°C° 0 mm 2 m/S 658 mmHg 33%
11:00 +21°C° 0 mm 1 m/S 658 mmHg 26%
12:00 +21°C° 0 mm 2 m/S 658 mmHg 24%
13:00 +21°C° 0 mm 2 m/S 658 mmHg 22%
14:00 +23°C° 0 mm 2 m/S 657 mmHg 21%
15:00 +21°C° 0 mm 2 m/S 657 mmHg 24%
16:00 +21°C° 0 mm 2 m/S 656 mmHg 27%
17:00 +20°C° 0 mm 2 m/S 656 mmHg 30%
18:00 +18°C° 0 mm 2 m/S 655 mmHg 34%
19:00 +16°C° 0 mm 2 m/S 655 mmHg 38%
20:00 +14°C° 0 mm 2 m/S 655 mmHg 42%
21:00 +14°C° 0 mm 2 m/S 655 mmHg 42%
22:00 +13°C° 0 mm 2 m/S 655 mmHg 42%
23:00 +13°C° 0 mm 2 m/S 655 mmHg 42%

Morgen, 6 März, Samstag

Zeit Temperatur Niederschläge Wind Luftdruck Luftfeuchtigkeit
00:00 +12°C° 0 mm 2 m/S 654 mmHg 41%
01:00 +11°C° 0 mm 3 m/S 654 mmHg 40%
02:00 +11°C° 0 mm 3 m/S 654 mmHg 39%
03:00 +11°C° 0 mm 3 m/S 654 mmHg 38%
04:00 +10°C° 0 mm 3 m/S 653 mmHg 37%
05:00 +10°C° 0 mm 3 m/S 653 mmHg 36%
06:00 +11°C° 0 mm 3 m/S 654 mmHg 36%
07:00 +12°C° 0 mm 3 m/S 654 mmHg 36%
08:00 +13°C° 0 mm 3 m/S 655 mmHg 36%
09:00 +16°C° 0 mm 2 m/S 656 mmHg 31%
10:00 +18°C° 0 mm 2 m/S 657 mmHg 27%
11:00 +21°C° 0 mm 1 m/S 658 mmHg 22%
12:00 +20°C° 0 mm 2 m/S 657 mmHg 23%
13:00 +20°C° 0 mm 3 m/S 657 mmHg 24%
14:00 +20°C° 0 mm 3 m/S 656 mmHg 25%
15:00 +19°C° 0 mm 3 m/S 656 mmHg 27%
16:00 +18°C° 0 mm 3 m/S 655 mmHg 30%
17:00 +18°C° 0 mm 3 m/S 655 mmHg 33%
18:00 +17°C° 0 mm 3 m/S 655 mmHg 35%
19:00 +16°C° 0 mm 3 m/S 655 mmHg 38%
20:00 +14°C° 0 mm 4 m/S 655 mmHg 40%
21:00 +13°C° 0 mm 4 m/S 655 mmHg 42%
22:00 +13°C° 0 mm 4 m/S 655 mmHg 43%
23:00 +12°C° 0 mm 5 m/S 655 mmHg 45%

übermorgen, 7 März, Sonntag

Zeit Temperatur Niederschläge Wind Luftdruck Luftfeuchtigkeit
00:00 +12°C° 0 mm 5 m/S 654 mmHg 48%
01:00 +10°C° 0 mm 5 m/S 653 mmHg 52%
02:00 +10°C° 0 mm 4 m/S 653 mmHg 56%
03:00 +10°C° 0 mm 4 m/S 653 mmHg 57%
04:00 +10°C° 0 mm 4 m/S 652 mmHg 58%
05:00 +10°C° 0 mm 3 m/S 652 mmHg 59%
06:00 +11°C° 0.1 mm 3 m/S 653 mmHg 58%
07:00 +11°C° 0.1 mm 3 m/S 653 mmHg 58%
08:00 +13°C° 0.1 mm 2 m/S 654 mmHg 57%
09:00 +14°C° 0.3 mm 3 m/S 654 mmHg 53%
10:00 +17°C° 0.3 mm 3 m/S 655 mmHg 49%
11:00 +18°C° 0.3 mm 3 m/S 655 mmHg 45%
12:00 +19°C° 0.1 mm 3 m/S 655 mmHg 42%
13:00 +20°C° 0.1 mm 2 m/S 655 mmHg 40%
14:00 +21°C° 0.1 mm 2 m/S 655 mmHg 37%
15:00 +20°C° 0.1 mm 2 m/S 654 mmHg 39%
16:00 +20°C° 0.1 mm 2 m/S 654 mmHg 42%
17:00 +19°C° 0.1 mm 2 m/S 653 mmHg 45%
18:00 +17°C° 0.6 mm 3 m/S 653 mmHg 54%
19:00 +14°C° 0.6 mm 3 m/S 653 mmHg 64%
20:00 +12°C° 0.6 mm 4 m/S 652 mmHg 73%
21:00 +11°C° 0.6 mm 3 m/S 652 mmHg 74%
22:00 +11°C° 0.6 mm 3 m/S 652 mmHg 75%
23:00 +11°C° 0.6 mm 3 m/S 652 mmHg 77%

8 März, Montag

Zeit Temperatur Niederschläge Wind Luftdruck Luftfeuchtigkeit
00:00 +10°C° 1.1 mm 3 m/S 652 mmHg 78%
01:00 +10°C° 1.1 mm 3 m/S 652 mmHg 80%
02:00 +10°C° 1.1 mm 3 m/S 652 mmHg 81%
03:00 +10°C° 0.5 mm 3 m/S 652 mmHg 80%
04:00 +9°C° 0.5 mm 3 m/S 652 mmHg 80%
05:00 +9°C° 0.5 mm 3 m/S 652 mmHg 79%
06:00 +10°C° 0.1 mm 3 m/S 653 mmHg 75%
07:00 +11°C° 0.1 mm 3 m/S 654 mmHg 71%
08:00 +13°C° 0.1 mm 2 m/S 655 mmHg 66%
09:00 +16°C° 0 mm 2 m/S 656 mmHg 58%
10:00 +18°C° 0 mm 2 m/S 657 mmHg 49%
11:00 +20°C° 0 mm 2 m/S 658 mmHg 40%
12:00 +21°C° 0 mm 2 m/S 658 mmHg 35%
13:00 +23°C° 0 mm 2 m/S 658 mmHg 30%
14:00 +22°C° 0 mm 3 m/S 659 mmHg 24%
15:00 +23°C° 0 mm 2 m/S 658 mmHg 26%
16:00 +23°C° 0 mm 2 m/S 658 mmHg 28%
17:00 +22°C° 0 mm 1 m/S 657 mmHg 29%
18:00 +20°C° 0 mm 1 m/S 657 mmHg 33%
19:00 +18°C° 0 mm 1 m/S 657 mmHg 37%
20:00 +15°C° 0 mm 2 m/S 656 mmHg 41%
21:00 +14°C° 0 mm 2 m/S 656 mmHg 43%
22:00 +13°C° 0 mm 3 m/S 656 mmHg 46%
23:00 +12°C° 0 mm 3 m/S 656 mmHg 49%

9 März, Dienstag

Zeit Temperatur Niederschläge Wind Luftdruck Luftfeuchtigkeit
00:00 +12°C° 0 mm 3 m/S 656 mmHg 48%
01:00 +12°C° 0 mm 3 m/S 656 mmHg 47%
02:00 +12°C° 0 mm 3 m/S 656 mmHg 46%
03:00 +12°C° 0 mm 3 m/S 656 mmHg 46%
04:00 +11°C° 0 mm 3 m/S 655 mmHg 45%
05:00 +11°C° 0 mm 3 m/S 655 mmHg 45%
06:00 +12°C° 0 mm 3 m/S 656 mmHg 45%
07:00 +13°C° 0 mm 3 m/S 656 mmHg 45%
08:00 +14°C° 0 mm 3 m/S 657 mmHg 45%
09:00 +17°C° 0 mm 3 m/S 658 mmHg 39%
10:00 +20°C° 0 mm 2 m/S 658 mmHg 33%
11:00 +23°C° 0 mm 2 m/S 659 mmHg 27%
12:00 +24°C° 0 mm 2 m/S 659 mmHg 25%
13:00 +25°C° 0 mm 2 m/S 659 mmHg 23%
14:00 +25°C° 0 mm 2 m/S 659 mmHg 20%
15:00 +25°C° 0 mm 2 m/S 658 mmHg 23%
16:00 +24°C° 0 mm 2 m/S 657 mmHg 26%
17:00 +23°C° 0 mm 1 m/S 657 mmHg 29%
18:00 +21°C° 0 mm 1 m/S 657 mmHg 31%
19:00 +19°C° 0 mm 1 m/S 656 mmHg 33%
20:00 +16°C° 0 mm 1 m/S 656 mmHg 35%
21:00 +16°C° 0 mm 2 m/S 656 mmHg 37%
22:00 +15°C° 0 mm 2 m/S 655 mmHg 39%
23:00 +14°C° 0 mm 3 m/S 655 mmHg 41%

10 März, Mittwoch

Zeit Temperatur Niederschläge Wind Luftdruck Luftfeuchtigkeit
00:00 +14°C° 0 mm 3 m/S 655 mmHg 41%
01:00 +13°C° 0 mm 3 m/S 655 mmHg 41%
02:00 +13°C° 0 mm 3 m/S 654 mmHg 41%
03:00 +13°C° 0 mm 3 m/S 654 mmHg 42%
04:00 +13°C° 0 mm 3 m/S 654 mmHg 42%
05:00 +13°C° 0 mm 3 m/S 653 mmHg 42%
06:00 +13°C° 0 mm 3 m/S 654 mmHg 43%
07:00 +14°C° 0 mm 3 m/S 654 mmHg 44%
08:00 +16°C° 0 mm 3 m/S 655 mmHg 45%
09:00 +17°C° 0 mm 3 m/S 655 mmHg 41%
10:00 +19°C° 0 mm 2 m/S 656 mmHg 37%
11:00 +21°C° 0 mm 2 m/S 656 mmHg 33%
12:00 +22°C° 0 mm 3 m/S 656 mmHg 30%
13:00 +24°C° 0 mm 3 m/S 656 mmHg 26%
14:00 +25°C° 0 mm 4 m/S 655 mmHg 23%
15:00 +24°C° 0 mm 3 m/S 655 mmHg 27%
16:00 +23°C° 0 mm 2 m/S 654 mmHg 30%
17:00 +22°C° 0 mm 1 m/S 654 mmHg 34%
18:00 +20°C° 0 mm 1 m/S 654 mmHg 38%
19:00 +18°C° 0 mm 1 m/S 653 mmHg 42%
20:00 +15°C° 0 mm 1 m/S 653 mmHg 46%
21:00 +15°C° 0.1 mm 2 m/S 653 mmHg 48%
22:00 +15°C° 0.1 mm 2 m/S 653 mmHg 50%
23:00 +14°C° 0.1 mm 3 m/S 654 mmHg 52%
Mehr zeigen

Wir brauchen deine Erlaubnis

Meteoprog und unser Service Anbieter werden persönliche Daten aufbewahren, so wie Cookies, Geräte Bezeichnung oder ähnliche Technologien von deinem Gerät und Prozess, so wie Persönliche Daten Inhalte und Werbungen, genauso wie social Media und den Verkehr zu analysieren.

  • Aufbewahrung und/oder Zugang zu deiner Geräte Informationen.

    Cookies, Geräte Bezeichnung oder andere Informationen, können aufbewahrt oder Zugang zu deinem Gerät erhalten, für den Grund, der oben angegeben wird.

  • Personalisierte Werbung und Inhalte, Messungen, Einblick in das Publikum und Produkt Entwicklung.

    Werbungen und Inhalte können personalisiert werden, basierend auf ein Profil. Mehr Daten können besser personalisierte Werbungen und Inhalte hinzufügen. Werbung und Inhalte können gezeigt und gemessen werden. Einblicke über das Publikum, welche die Werbung gesehen haben und den Inhalt, können abgeleitet werden. So wie Daten können genutzt werden, um es zu verbessern oder die Benutzer Erfahrung zu verbessern das System und die Software.

Wenn du “Ich stimme zu” klickst, erlaubst du uns, die Cookies zu benutzen die Geräte Bezeichnung, den Web oder ähnliche Technologien zu benutzen. Deine Settings, können in deinem Gerät bei deinem Browser geändert werden.

Für den bestimmten Zweck, berechtigten Interessen beruhen darauf, mehr als auf den Inhalt. Du kannst mehr darüber in unseren Privaten und Cookie Politik lesen.